#timestamp,LO_Frequency,Hit,StdDev 
1580968815.0,286047002.0,N
1580968815.9,286047002.0,N
1580968835.8,286047003.9,N
1580968855.6,286047003.9,N
1580968875.5,286046999.7,N
1580968895.3,286047002.5,N
1580968915.1,286047002.1,N
1580968935.9,286047000.4,N
1580968955.7,286047002.0,N
1580968975.5,286047002.0,N
1580968995.4,286047000.2,N
1580969015.2,286047001.8,N
1580969035.1,286047004.4,N
1580969036.0,286047004.4,N
1580969055.8,286047003.9,N
1580969075.6,286047001.7,N
1580969095.5,286047001.5,N
1580969115.3,286047003.0,N
1580969135.2,286047003.1,N
1580969155.9,286047003.6,N
1580969175.7,286047004.4,N
1580969195.6,286047004.2,N
1580969215.4,286047004.0,N
1580969235.2,286047003.2,N
1580969255.1,286047001.3,N
1580969256.0,286047001.3,N
1580969275.8,286047002.2,N
1580969295.7,286047002.9,N
1580969315.5,286047005.5,Y
1580969335.3,286047001.4,P
1580969355.2,286047000.6,N
1580969375.0,286046996.6,P
1580969375.9,286046996.6,N
1580969395.8,286046997.3,N
1580969415.6,286046997.5,N
1580969435.4,286046998.6,N
1580969455.3,286047002.4,N
1580969475.1,286047002.2,N
1580969495.8,286047000.3,N
1580969515.7,286047000.9,N
1580969535.5,286047000.3,N
1580969555.4,286047000.9,N
1580969575.2,286046999.1,N
1580969595.0,286046998.2,N
1580969595.9,286046998.2,N
1580969615.8,286047000.2,N
1580969635.6,286047002.4,N
1580969655.4,286047001.3,N
1580969675.3,286047001.6,N
1580969695.1,286047002.8,N
1580969715.9,286047002.8,N
1580969735.7,286047000.2,N
1580969755.5,286047001.5,N
1580969775.4,286046999.7,N
1580969795.2,286047002.8,N
1580969815.0,286047001.3,N
1580969816.0,286047001.3,N
1580969835.8,286047004.2,N
1580969855.6,286047001.3,N
1580969875.5,286047004.3,N
1580969895.3,286047004.3,N
1580969915.1,286047001.8,N
1580969935.9,286047000.0,N
1580969955.7,286047000.6,N
1580969975.6,286046999.7,N
1580969995.4,286047000.5,N
1580970015.2,286046998.7,N
1580970035.1,286047000.8,N
1580970036.0,286047000.8,N
1580970055.8,286047000.3,N
1580970075.6,286046999.8,N
1580970095.5,286046998.3,N
1580970115.3,286047001.1,N
1580970135.2,286046999.9,N
1580970155.9,286047000.2,N
1580970175.7,286047000.5,N
1580970195.6,286047000.6,N
1580970215.4,286046999.9,N
1580970235.2,286047002.5,N
1580970255.1,286047004.0,N
1580970256.0,286047004.0,N
1580970275.8,286047000.4,N
1580970295.7,286047000.7,N
1580970315.5,286047000.9,N
1580970335.3,286047000.4,N
1580970355.2,286047000.5,N
1580970375.0,286047000.7,N
1580970375.9,286047000.7,N
1580970395.7,286046999.9,N
1580970415.6,286046999.8,N
1580970435.4,286047001.9,N
1580970455.3,286047003.8,Y
1580970475.1,286047003.7,P
1580970476.0,286047003.7,N
1580970495.8,286047001.9,N
1580970515.1,286047000.4,N
1580970535.9,286047000.8,N
1580970555.7,286047000.7,N
1580970575.5,286046999.7,N
1580970595.4,286046999.7,N
1580970615.2,286047001.0,N
1580970635.1,286046998.6,N
1580970636.0,286046998.6,N
1580970655.8,286047002.6,N
1580970675.6,286047001.8,N
1580970695.5,286047004.2,N
1580970715.3,286047003.7,N
1580970735.1,286047002.7,N
1580970755.9,286047000.0,N
1580970775.7,286046998.8,N
1580970795.6,286046998.3,N
1580970815.4,286047000.6,N
1580970835.2,286047000.4,N
1580970855.1,286047000.1,N
1580970856.0,286047000.1,N
1580970875.8,286047000.6,N
1580970895.6,286047002.7,N
1580970915.5,286047001.4,N
1580970935.3,286047003.8,N
1580970955.2,286047004.1,N
1580970975.9,286047004.1,N
1580970995.7,286047003.8,N
1580971015.6,286047004.4,N
1580971035.4,286047000.5,N
1580971055.3,286047002.5,N
1580971075.1,286047002.0,N
1580971095.8,286047002.4,N
1580971115.7,286046999.7,N
1580971135.5,286046998.1,N
1580971155.4,286046999.4,N
1580971175.2,286046998.4,N
1580971195.0,286047000.6,N
1580971195.9,286047000.6,N
1580971215.8,286046999.9,N
1580971235.6,286047000.3,N
1580971255.4,286047001.9,N
1580971275.3,286047002.3,N
1580971295.1,286047001.6,N
1580971315.9,286047004.3,N
1580971335.7,286047000.0,N
1580971355.5,286047000.4,N
1580971375.4,286047000.0,N
1580971395.2,286047000.5,N
1580971415.0,286047002.2,N
1580971416.0,286047002.2,N
1580971435.8,286047002.4,N
1580971455.6,286047001.3,N
1580971475.5,286047001.7,N
1580971495.3,286047001.6,N
1580971515.1,286046999.7,N
1580971535.9,286047002.7,N
1580971555.7,286046999.9,N
1580971575.6,286047000.5,N
1580971595.4,286047002.0,N
1580971615.2,286046999.9,N
1580971635.1,286047002.8,N
1580971636.0,286047002.8,N
1580971655.8,286047001.1,N
1580971675.7,286047002.5,N
1580971695.5,286047001.8,N
1580971715.3,286047004.8,Y
1580971735.2,286047005.2,P
1580971755.0,286047004.5,N
1580971755.9,286047004.5,N
1580971775.7,286047004.4,N
1580971795.6,286047002.3,N
1580971815.4,286047003.9,N
1580971835.3,286047002.1,N
1580971855.1,286046999.7,N
1580971856.0,286046999.7,N
1580971875.8,286046999.8,N
1580971895.7,286047002.6,N
1580971915.5,286047002.4,N
1580971935.3,286046999.9,N
1580971955.2,286047000.9,N
1580971975.0,286046998.8,N
1580971975.9,286046998.8,N
1580971995.8,286047001.2,N
1580972015.6,286046998.4,N
1580972035.4,286046998.9,N
1580972055.3,286046999.1,N
1580972075.1,286046997.1,N
1580972095.8,286046996.9,N
1580972115.7,286047000.0,N
1580972135.5,286046998.4,N
1580972155.4,286046998.9,N
1580972175.2,286046998.2,N
1580972195.0,286046998.3,N
1580972195.9,286046998.3,N
1580972215.8,286046998.2,N
1580972235.6,286046996.5,N
1580972255.4,286046996.6,N
1580972275.3,286046997.4,N
1580972295.1,286046998.1,N
1580972315.9,286047002.6,N
1580972335.7,286047000.5,N
1580972355.5,286047000.7,N
1580972375.4,286046998.9,N
1580972395.2,286047001.1,N
